This demonstration page uses our WeatherBlox Daily Observations layout. Learn more.

Left ArrowRight Arrow

Hourly Observations for May 24, 2018

Temp ( °F °C ) Dew Point ( °F °C ) Humidity (%) Winds ( mph kmh ) Pressure ( in mb ) Visibility ( mi km ) Precip ( " mm )
12:56 am 00:56 Clear 71 21.7 62 16.7 73 73 S 18 30 29.93 1014 10 16 0.00 0.00
1:56 am 01:56 Clear 69 20.6 61 16.1 76 76 S 13 20 29.95 1014 10 16 0.00 0.00
2:56 am 02:56 Clear 68 20 60 15.6 76 76 S 17 28 29.94 1014 10 16 0.00 0.00
4:56 am 04:56 Clear 65 18.3 59 15 81 81 S 9 15 29.96 1014 10 16 0.00 0.00
5:56 am 05:56 Clear 64 17.8 58 14.4 81 81 S 10 17 29.96 1015 10 16 0.00 0.00
6:56 am 06:56 Sunny 65 18.3 58 14.4 78 78 N 6 9 29.99 1016 10 16 0.00 0.00
7:06 am 07:06 Mostly Sunny 63 17 57 14 83 83 NNE 6 9 29.97 1015 10 16 0.00 0.00
7:56 am 07:56 Sunny 65 18.3 60 15.6 84 84 ENE 6 9 29.98 1015 10 16 0.00 0.00
8:04 am 08:04 Mostly Sunny 66 19 61 16 83 83 NE 8 13 29.97 1015 10 16 0.00 0.00
8:56 am 08:56 Sunny 69 20.6 60 15.6 73 73 E 9 15 29.98 1015 10 16 0.00 0.00
9:56 am 09:56 Sunny 72 22.2 60 15.6 66 66 SSE 14 22 29.96 1015 10 16 0.00 0.00
10:56 am 10:56 Sunny 76 24.4 61 16.1 60 60 SSE 15 24 29.94 1014 10 16 0.00 0.00
11:56 am 11:56 Sunny 80 26.7 60 15.6 51 51 S 15 24 29.93 1013 10 16 0.00 0.00
12:56 pm 12:56 Sunny 82 27.8 59 15 46 46 S 20 31 29.92 1013 10 16 0.00 0.00
1:56 pm 13:56 Sunny 83 28.3 61 16.1 48 48 S 21 33 29.90 1013 10 16 0.00 0.00
2:56 pm 14:56 Sunny 83 28.3 59 15 44 44 S 17 28 29.90 1012 10 16 0.00 0.00
3:56 pm 15:56 Sunny 86 30 60 15.6 42 42 S 18 30 29.88 1012 10 16 0.00 0.00
4:56 pm 16:56 Sunny 86 30 58 14.4 39 39 SSW 21 33 29.86 1011 10 16 0.00 0.00
5:56 pm 17:56 Sunny 85 29.4 62 16.7 46 46 S 16 26 29.86 1011 10 16 0.00 0.00
6:56 pm 18:56 Sunny 84 28.9 61 16.1 46 46 S 16 26 29.85 1011 10 16 0.00 0.00
7:56 pm 19:56 Sunny 81 27.2 60 15.6 49 49 SSE 16 26 29.86 1011 10 16 0.00 0.00
8:56 pm 20:56 Clear 76 24.4 59 15 56 56 SSE 9 15 29.86 1011 10 16 0.00 0.00
9:56 pm 21:56 Clear 74 23.3 60 15.6 62 62 SSE 9 15 29.87 1012 10 16 0.00 0.00
10:56 pm 22:56 Clear 73 22.8 63 17.2 71 71 SSE 9 15 29.88 1012 10 16 0.00 0.00

Powered by AerisWeather